N7612J KSAN-KLAX

Flight info

Callsign N7612J
Flight time 0h 40m
Altitude 6000
Route SANP3
Aircraft SR22/L-G/L

Departure

Time 2026-05-05 21:06
Airport San Diego International Airport (KSAN)

Arrival

Time 2026-05-05 21:46
Airport Los Angeles International Airport (KLAX)
Time Latitude Longitude Altitude Speed Heading
2026-05-05 20:55 32.73360 -117.17885 21 ft 0 kts 17°
2026-05-05 21:00 32.73376 -117.17928 21 ft 14 kts 279°
2026-05-05 21:00 32.73358 -117.18059 18 ft 14 kts 219°
2026-05-05 21:01 32.73334 -117.18084 18 ft 0 kts 225°
2026-05-05 21:01 32.73333 -117.18085 18 ft 1 kts 209°
2026-05-05 21:01 32.73309 -117.18062 18 ft 4 kts 79°
2026-05-05 21:01 32.73309 -117.18057 18 ft 0 kts 99°
2026-05-05 21:02 32.73301 -117.18066 18 ft 10 kts 267°
2026-05-05 21:02 32.73306 -117.18101 18 ft 0 kts 281°
2026-05-05 21:03 32.73296 -117.18109 18 ft 6 kts 148°
2026-05-05 21:03 32.73329 -117.18039 18 ft 15 kts 53°
2026-05-05 21:03 32.73340 -117.17966 19 ft 13 kts 141°
2026-05-05 21:03 32.73243 -117.17976 18 ft 16 kts 147°
2026-05-05 21:04 32.73197 -117.17836 19 ft 24 kts 103°
2026-05-05 21:04 32.73152 -117.17648 22 ft 23 kts 108°
2026-05-05 21:04 32.73107 -117.17569 22 ft 0 kts 143°
2026-05-05 21:04 32.73092 -117.17556 22 ft 17 kts 153°
2026-05-05 21:05 32.73018 -117.17645 22 ft 15 kts 307°
2026-05-05 21:05 32.73105 -117.17934 19 ft 64 kts 285°
2026-05-05 21:05 32.73244 -117.18467 236 ft 78 kts 284°
2026-05-05 21:05 32.73549 -117.18989 520 ft 87 kts 318°
2026-05-05 21:06 32.73998 -117.19331 893 ft 83 kts 321°
2026-05-05 21:06 32.74440 -117.19664 1198 ft 82 kts 321°
2026-05-05 21:06 32.74885 -117.20003 1441 ft 83 kts 321°
2026-05-05 21:06 32.75344 -117.20350 1674 ft 85 kts 321°
2026-05-05 21:07 32.75801 -117.20691 1928 ft 85 kts 321°
2026-05-05 21:07 32.76292 -117.21061 2187 ft 86 kts 321°
2026-05-05 21:07 32.76785 -117.21446 2454 ft 86 kts 321°
2026-05-05 21:07 32.77287 -117.21836 2707 ft 88 kts 321°
2026-05-05 21:08 32.77795 -117.22225 2970 ft 89 kts 330°
2026-05-05 21:08 32.78377 -117.22271 3218 ft 94 kts
2026-05-05 21:08 32.78978 -117.22176 3460 ft 93 kts 351°
2026-05-05 21:08 32.79514 -117.22430 3704 ft 89 kts 321°
2026-05-05 21:09 32.80024 -117.22835 3961 ft 90 kts 321°
2026-05-05 21:09 32.80568 -117.23171 4223 ft 92 kts 333°
2026-05-05 21:09 32.81153 -117.23432 4489 ft 92 kts 333°
2026-05-05 21:09 32.81697 -117.23670 4743 ft 91 kts 334°
2026-05-05 21:10 32.82234 -117.23902 4988 ft 91 kts 334°
2026-05-05 21:10 32.82783 -117.24139 5231 ft 92 kts 334°
2026-05-05 21:10 32.83337 -117.24376 5466 ft 93 kts 334°
2026-05-05 21:10 32.83887 -117.24610 5700 ft 94 kts 334°
2026-05-05 21:11 32.84453 -117.24852 5903 ft 99 kts 335°
2026-05-05 21:11 32.85069 -117.25115 5948 ft 114 kts 336°
2026-05-05 21:11 32.85818 -117.25433 5951 ft 124 kts 336°
2026-05-05 21:11 32.86656 -117.25790 5945 ft 130 kts 336°
2026-05-05 21:12 32.87514 -117.26154 5943 ft 132 kts 336°
2026-05-05 21:12 32.88356 -117.26512 5940 ft 133 kts 336°
2026-05-05 21:12 32.89225 -117.26881 5939 ft 134 kts 336°
2026-05-05 21:12 32.90105 -117.27256 5939 ft 134 kts 336°
2026-05-05 21:13 32.90987 -117.27632 5938 ft 134 kts 336°
2026-05-05 21:13 32.91846 -117.27998 5936 ft 134 kts 336°
2026-05-05 21:13 32.92725 -117.28372 5936 ft 134 kts 336°
2026-05-05 21:13 32.93599 -117.28745 5936 ft 134 kts 336°
2026-05-05 21:14 32.94477 -117.29118 5935 ft 133 kts 336°
2026-05-05 21:14 32.95338 -117.29485 5936 ft 133 kts 336°
2026-05-05 21:14 32.96209 -117.29856 5935 ft 133 kts 336°
2026-05-05 21:14 32.97083 -117.30229 5936 ft 134 kts 337°
2026-05-05 21:15 32.97955 -117.30601 5936 ft 134 kts 337°
2026-05-05 21:15 32.98834 -117.30975 5937 ft 134 kts 336°
2026-05-05 21:15 32.99708 -117.31348 5936 ft 134 kts 337°
2026-05-05 21:15 33.00588 -117.31724 5936 ft 135 kts 337°
2026-05-05 21:16 33.01464 -117.32098 5936 ft 134 kts 336°
2026-05-05 21:16 33.02339 -117.32471 5934 ft 135 kts 337°
2026-05-05 21:16 33.03220 -117.32848 5934 ft 135 kts 337°
2026-05-05 21:16 33.04109 -117.33227 5931 ft 135 kts 337°
2026-05-05 21:17 33.04990 -117.33604 5930 ft 134 kts 337°
2026-05-05 21:17 33.05871 -117.33980 5930 ft 134 kts 337°
2026-05-05 21:17 33.06748 -117.34355 5845 ft 145 kts 337°
2026-05-05 21:17 33.07196 -117.34547 5877 ft 145 kts 337°
2026-05-05 21:18 33.08145 -117.34952 5926 ft 149 kts 338°
2026-05-05 21:18 33.09056 -117.35342 5935 ft 153 kts 337°
2026-05-05 21:18 33.09978 -117.35736 5934 ft 155 kts 338°
2026-05-05 21:18 33.10943 -117.36149 5933 ft 157 kts 338°
2026-05-05 21:19 33.11915 -117.36565 5934 ft 159 kts 338°
2026-05-05 21:19 33.12877 -117.36976 5931 ft 160 kts 338°
2026-05-05 21:19 33.13852 -117.37393 5931 ft 160 kts 338°
2026-05-05 21:19 33.14848 -117.37820 5928 ft 161 kts 338°
2026-05-05 21:20 33.15841 -117.38245 5928 ft 161 kts 338°
2026-05-05 21:20 33.16855 -117.38680 5927 ft 161 kts 338°
2026-05-05 21:20 33.17887 -117.39121 5926 ft 161 kts 338°
2026-05-05 21:20 33.18929 -117.39568 5927 ft 161 kts 338°
2026-05-05 21:21 33.19977 -117.40017 5927 ft 161 kts 338°
2026-05-05 21:21 33.21034 -117.40470 5927 ft 161 kts 338°
2026-05-05 21:21 33.22079 -117.40918 5927 ft 161 kts 338°
2026-05-05 21:21 33.23121 -117.41364 5925 ft 160 kts 338°
2026-05-05 21:22 33.24072 -117.41927 5926 ft 158 kts 318°
2026-05-05 21:22 33.24885 -117.42812 5928 ft 158 kts 316°
2026-05-05 21:22 33.25682 -117.43705 5965 ft 157 kts 315°
2026-05-05 21:22 33.26478 -117.44611 5971 ft 157 kts 315°
2026-05-05 21:23 33.27265 -117.45513 5974 ft 157 kts 314°
2026-05-05 21:23 33.28054 -117.46424 5974 ft 158 kts 314°
2026-05-05 21:23 33.28852 -117.47348 5975 ft 159 kts 314°
2026-05-05 21:23 33.29641 -117.48264 5974 ft 159 kts 314°
2026-05-05 21:24 33.30432 -117.49184 5971 ft 159 kts 315°
2026-05-05 21:24 33.31227 -117.50109 5968 ft 159 kts 315°
2026-05-05 21:24 33.32025 -117.51039 5967 ft 159 kts 315°
2026-05-05 21:24 33.32825 -117.51971 5967 ft 159 kts 315°
2026-05-05 21:25 33.33618 -117.52896 5967 ft 159 kts 315°
2026-05-05 21:25 33.57538 -117.80310 5970 ft 159 kts 312°
2026-05-05 21:25 33.58221 -117.81320 5951 ft 160 kts 309°
2026-05-05 21:25 33.58866 -117.82215 5949 ft 160 kts 311°
2026-05-05 21:26 33.59493 -117.83039 5946 ft 159 kts 313°
2026-05-05 21:26 33.60134 -117.83853 5947 ft 159 kts 313°
2026-05-05 21:26 33.60780 -117.84654 5954 ft 160 kts 314°
2026-05-05 21:26 33.61444 -117.85462 5954 ft 160 kts 315°
2026-05-05 21:27 33.62113 -117.86269 5950 ft 160 kts 315°
2026-05-05 21:27 33.62769 -117.87054 5952 ft 160 kts 315°
2026-05-05 21:27 33.63426 -117.87837 5953 ft 160 kts 315°
2026-05-05 21:27 33.64103 -117.88641 5957 ft 160 kts 315°
2026-05-05 21:28 33.64817 -117.89489 5955 ft 161 kts 315°
2026-05-05 21:28 33.65540 -117.90346 5953 ft 161 kts 316°
2026-05-05 21:28 33.66254 -117.91189 5951 ft 161 kts 315°
2026-05-05 21:28 33.66980 -117.92046 5950 ft 161 kts 315°
2026-05-05 21:29 33.67700 -117.92898 5949 ft 160 kts 315°
2026-05-05 21:29 33.68435 -117.93766 5952 ft 160 kts 315°
2026-05-05 21:29 33.69150 -117.94611 5950 ft 160 kts 315°
2026-05-05 21:29 33.69863 -117.95454 5947 ft 160 kts 316°
2026-05-05 21:30 33.70579 -117.96300 5948 ft 161 kts 315°
2026-05-05 21:30 33.71310 -117.97165 5949 ft 161 kts 316°
2026-05-05 21:30 33.72019 -117.98003 5947 ft 162 kts 316°
2026-05-05 21:30 33.72716 -117.98827 5945 ft 162 kts 316°
2026-05-05 21:31 33.73402 -117.99638 5945 ft 162 kts 316°
2026-05-05 21:31 33.74131 -118.00500 5939 ft 163 kts 316°
2026-05-05 21:31 33.74900 -118.01410 5847 ft 167 kts 316°
2026-05-05 21:31 33.75612 -118.02253 5814 ft 166 kts 316°
2026-05-05 21:32 33.76290 -118.03056 5706 ft 165 kts 316°
2026-05-05 21:32 33.76953 -118.03841 5604 ft 165 kts 316°
2026-05-05 21:32 33.77709 -118.04682 5489 ft 164 kts 326°
2026-05-05 21:32 33.78711 -118.05199 5370 ft 164 kts 344°
2026-05-05 21:33 33.79762 -118.05465 5255 ft 163 kts 350°
2026-05-05 21:33 33.80860 -118.05646 5135 ft 163 kts 352°
2026-05-05 21:33 33.81838 -118.05776 5028 ft 163 kts 353°
2026-05-05 21:33 33.82784 -118.05890 4968 ft 160 kts 353°
2026-05-05 21:34 33.83683 -118.05994 4957 ft 156 kts 353°
2026-05-05 21:34 33.84658 -118.06104 4961 ft 158 kts 353°
2026-05-05 21:34 33.85572 -118.06206 4959 ft 159 kts 353°
2026-05-05 21:34 33.86494 -118.06308 4959 ft 159 kts 353°
2026-05-05 21:35 33.87431 -118.06413 4958 ft 160 kts 354°
2026-05-05 21:35 33.88391 -118.06519 4959 ft 160 kts 353°
2026-05-05 21:35 33.89383 -118.06628 4958 ft 161 kts 354°
2026-05-05 21:35 33.90385 -118.06740 4958 ft 162 kts 354°
2026-05-05 21:36 33.91341 -118.06846 4959 ft 162 kts 354°
2026-05-05 21:36 33.92289 -118.06951 4958 ft 162 kts 354°
2026-05-05 21:36 33.93228 -118.07055 4957 ft 163 kts 354°
2026-05-05 21:36 33.94176 -118.07160 4957 ft 163 kts 354°
2026-05-05 21:37 33.95102 -118.07264 4957 ft 163 kts 353°
2026-05-05 21:37 33.95970 -118.07702 4962 ft 162 kts 317°
2026-05-05 21:37 33.96435 -118.08655 4965 ft 162 kts 283°
2026-05-05 21:37 33.96503 -118.09740 4966 ft 162 kts 270°
2026-05-05 21:38 33.96454 -118.10969 4891 ft 167 kts 266°
2026-05-05 21:38 33.96365 -118.12136 4616 ft 179 kts 264°
2026-05-05 21:38 33.96253 -118.13371 4345 ft 186 kts 264°
2026-05-05 21:38 33.96132 -118.14605 4079 ft 189 kts 263°
2026-05-05 21:39 33.96006 -118.15849 3808 ft 190 kts 262°
2026-05-05 21:39 33.95683 -118.17152 3518 ft 189 kts 253°
2026-05-05 21:39 33.95580 -118.18488 3264 ft 186 kts 269°
2026-05-05 21:39 33.95531 -118.19886 3060 ft 183 kts 265°
2026-05-05 21:40 33.95436 -118.21225 2840 ft 159 kts 264°
2026-05-05 21:40 33.95336 -118.22358 2650 ft 132 kts 263°
2026-05-05 21:40 33.95260 -118.23176 2511 ft 114 kts 262°
2026-05-05 21:40 33.95205 -118.23743 2420 ft 107 kts 262°
2026-05-05 21:41 33.95135 -118.24458 2314 ft 102 kts 261°
2026-05-05 21:41 33.95067 -118.25140 2213 ft 102 kts 261°
2026-05-05 21:41 33.94997 -118.25835 2111 ft 102 kts 261°
2026-05-05 21:41 33.94928 -118.26520 2008 ft 102 kts 261°
2026-05-05 21:42 33.94858 -118.27220 1946 ft 96 kts 261°
2026-05-05 21:42 33.94789 -118.27902 1830 ft 97 kts 260°
2026-05-05 21:42 33.94722 -118.28567 1715 ft 97 kts 260°
2026-05-05 21:42 33.94655 -118.29227 1604 ft 97 kts 260°
2026-05-05 21:43 33.94589 -118.29884 1492 ft 97 kts 260°
2026-05-05 21:43 33.94520 -118.30566 1380 ft 97 kts 261°
2026-05-05 21:43 33.94452 -118.31235 1272 ft 96 kts 260°
2026-05-05 21:43 33.94385 -118.31892 1166 ft 96 kts 260°
2026-05-05 21:44 33.94318 -118.32561 1060 ft 94 kts 260°
2026-05-05 21:44 33.94250 -118.33227 952 ft 94 kts 259°
2026-05-05 21:44 33.94181 -118.33901 842 ft 95 kts 261°
2026-05-05 21:44 33.94113 -118.34577 735 ft 95 kts 259°
2026-05-05 21:45 33.94043 -118.35265 624 ft 94 kts 259°
2026-05-05 21:45 33.93969 -118.35990 505 ft 94 kts 260°
2026-05-05 21:45 33.93902 -118.36684 411 ft 92 kts 259°
2026-05-05 21:45 33.93839 -118.37309 308 ft 82 kts 259°
2026-05-05 21:46 33.93773 -118.37901 187 ft 78 kts 260°
2026-05-05 21:46 33.93718 -118.38458 103 ft 68 kts 259°
2026-05-05 21:46 33.93669 -118.38902 99 ft 45 kts 261°
2026-05-05 21:46 33.93643 -118.39096 101 ft 14 kts 228°
2026-05-05 21:47 33.93545 -118.39120 102 ft 18 kts 221°
2026-05-05 21:47 33.93478 -118.39247 102 ft 22 kts 212°
2026-05-05 21:47 33.93371 -118.39307 102 ft 15 kts 199°
2026-05-05 21:47 33.93334 -118.39288 102 ft 4 kts 22°
2026-05-05 21:48 33.93335 -118.39288 102 ft 0 kts